This is the latest recevied weather packets stored in our database for station/object KB1JLI. If no packets are shown the sender has not sent any weather packets the latest 10 day(s).
| Time | Temp. | Humidity | Pressure | Rain* | Wind** | Luminosity | Snow |
|---|---|---|---|---|---|---|---|
| 1777556050 | 7.78° C | 99% | 1008.3 hPa | 0 mm | - | 61 W/m² | - |
| 1777555745 | 7.78° C | 99% | 1008.2 hPa | 0 mm | - | 72 W/m² | - |
| 1777555442 | 7.78° C | 99% | 1008.1 hPa | 0 mm | - | 65 W/m² | - |
| 1777555138 | 7.78° C | 99% | 1007.9 hPa | 0 mm | - | 95 W/m² | - |
| 1777554836 | 7.78° C | 99% | 1008 hPa | 0 mm | - | 121 W/m² | - |
| 1777554532 | 7.78° C | 99% | 1008.3 hPa | 0 mm | - | 117 W/m² | - |
| 1777554229 | 7.78° C | 99% | 1008.2 hPa | 0 mm | - | 100 W/m² | - |
| 1777553926 | 7.78° C | 99% | 1008.3 hPa | 0 mm | - | 105 W/m² | - |
| 1777553623 | 7.78° C | 99% | 1008.2 hPa | 0 mm | - | 96 W/m² | - |
| 1777553319 | 7.78° C | 99% | 1008.3 hPa | 0 mm | - | 79 W/m² | - |
| 1777553014 | 7.78° C | 99% | 1008.3 hPa | 0 mm | - | 89 W/m² | - |
| 1777552710 | 7.78° C | 99% | 1008.4 hPa | 0 mm | - | 102 W/m² | - |
| 1777552406 | 7.22° C | 99% | 1008.3 hPa | 0 mm | - | 113 W/m² | - |
| 1777552102 | 7.22° C | 99% | 1008.4 hPa | 0 mm | - | 89 W/m² | - |
| 1777551800 | 7.22° C | 99% | 1008.4 hPa | 0 mm | - | 61 W/m² | - |
| 1777551498 | 7.22° C | 99% | 1008.7 hPa | 0 mm | - | 40 W/m² | - |
| 1777551194 | 7.22° C | 99% | 1008.5 hPa | 0 mm | - | 47 W/m² | - |
| 1777550891 | 7.22° C | 99% | 1008.8 hPa | 0 mm | - | 33 W/m² | - |
| 1777550588 | 7.22° C | 99% | 1008.8 hPa | 0 mm | - | 32 W/m² | - |
| 1777550283 | 7.22° C | 99% | 1008.7 hPa | 0 mm | - | 38 W/m² | - |
| 1777549980 | 7.22° C | 99% | 1008.6 hPa | 0 mm | - | 40 W/m² | - |
| 1777549677 | 7.22° C | 99% | 1008.6 hPa | 0 mm | - | 44 W/m² | - |
| 1777549372 | 7.22° C | 99% | 1008.4 hPa | 0 mm | - | 55 W/m² | - |
| 1777549069 | 7.22° C | 99% | 1008.2 hPa | 0 mm | - | 40 W/m² | - |
| 1777548765 | 7.22° C | 99% | 1008 hPa | 0 mm | - | 39 W/m² | - |
* Rain latest hour (hover to see other rain measurements)
** Current wind speed in m/s (hover to see current wind gust speed)